Wetbulb
64.08 61.51 58.38 59.50 59.54 58.47 57.25 56.28 55.41 58.29 60.79 59.50 58.79 59.03 59.68 61.20 60.53 60.10 61.00 60.98 62.11 63.19 66.31 67.59 67.65 68.01 68.03 68.91 69.20 69.92 70.07 72.04 72.78 72.65 71.89 72.25 72.42 74.55 75.16 76.16 77.29 76.70 75.89 75.40
60.38 58.62 61.46 62.10 60.89 58.80 57.35 55.87 55.59 58.51 60.48 59.77 58.85 58.62 60.71 61.06 61.07 61.57 61.69 61.84 61.94 62.50 63.96 65.11 65.58 66.27 66.69 67.54 68.98 70.20 70.89 72.11 72.90 73.10 72.97 73.71 74.43 75.10 75.73 76.67 77.11 77.29 76.93 76.74
58.78 60.10 61.26 60.17 58.58 56.95 57.39 56.08 56.09 56.06 58.96 58.49 58.25 57.28 58.33 60.78 61.75 62.34 62.80 63.41 63.50 63.31 63.59 64.83 65.38 66.07 67.02 67.53 68.84 70.16 71.59 72.08 72.79 73.27 73.26 74.06 75.07 75.64 75.25 76.43 77.16 76.80 77.18 77.51
59.47 60.69 59.07 58.21 56.99 57.99 54.71 59.14 58.60 57.84 55.39 53.12 57.86 52.02 56.03 59.53 59.76 60.65 61.77 62.81 63.34 64.04 64.44 64.99 65.52 66.41 67.20 68.19 69.65 70.75 72.16 72.63 72.95 73.60 72.98 73.80 72.35 72.10 74.93 75.98 76.39 77.28 77.32 77.29
57.91 58.68 58.31 57.43 56.49 59.08 56.56 59.51 58.89 57.05 55.57 54.43 53.97 53.04 56.02 58.65 58.02 60.06 61.73 62.69 63.80 65.11 65.39 65.22 65.79 66.79 67.93 69.08 69.63 70.62 71.98 72.89 73.46 73.41 73.88 72.88 73.27 73.64 74.78 76.07 75.97 76.87 76.98 78.05
59.45 60.35 59.24 58.26 59.83 60.09 61.10 58.49 57.29 56.58 54.81 50.80 51.68 52.49 54.70 56.82 58.79 60.88 62.46 63.49 64.40 65.19 66.23 67.06 68.14 68.86 68.77 69.62 70.50 71.02 71.85 72.64 73.41 73.52 73.41 74.00 73.87 74.13 73.88 75.33 75.32 76.01 76.13 76.38
56.98 57.76 58.23 61.16 58.23 60.18 58.78 54.70 50.65 48.59 49.78 48.84 53.50 52.39 55.84 59.36 61.13 62.73 62.71 63.76 64.98 65.90 66.04 66.64 67.48 68.19 69.03 69.46 70.40 71.15 71.79 72.15 72.83 73.00 73.24 73.71 74.32 74.91 74.97 75.82 74.91 76.34 75.77 75.54
52.00 50.74 54.73 59.12 58.68 57.46 57.27 54.31 50.31 45.09 46.47 49.06 53.14 51.23 56.48 61.00 62.02 63.19 64.45 65.56 66.36 66.71 66.49 66.46 67.34 68.46 69.51 70.25 70.72 71.28 71.51 72.30 72.83 73.04 73.66 74.60 75.79 74.52 75.05 75.92 75.39 75.46 75.86 75.97
51.27 51.00 55.19 57.76 60.29 60.24 56.27 53.76 54.85 51.82 51.40 50.38 52.79 54.53 57.88 60.16 61.24 64.21 64.09 65.04 65.37 66.48 66.76 66.82 67.96 68.47 69.40 70.38 71.00 71.51 72.07 72.43 72.80 72.81 73.91 74.41 75.05 75.23 75.19 75.90 76.34 75.91 77.03 76.55
53.70 48.93 53.40 55.71 58.77 58.29 58.12 58.38 52.74 52.57 45.91 45.47 49.91 50.98 54.31 59.24 62.23 63.77 63.42 63.88 65.49 66.11 66.10 66.64 67.64 68.23 69.47 70.55 71.52 71.93 72.41 72.46 73.34 73.20 73.63 73.78 74.33 75.12 75.32 75.84 76.07 76.50 77.19 77.97
54.37 53.02 51.73 53.30 54.03 54.19 55.38 54.89 53.60 53.42 51.44 47.66 46.69 50.71 57.94 60.32 62.89 63.68 64.43 65.21 65.91 66.75 67.30 66.91 68.48 69.40 68.89 70.88 71.33 71.50 72.11 72.77 72.94 73.36 73.98 74.31 74.53 74.73 75.35 74.89 76.02 76.65 77.04 76.98
54.42 52.31 48.67 51.11 55.20 54.10 56.27 55.49 55.47 51.05 49.03 51.22 50.50 51.37 59.05 60.40 62.09 65.24 65.34 65.67 66.49 67.31 67.95 68.29 66.75 69.70 73.08 74.65 75.22 72.90 72.30 72.30 73.44 73.99 74.06 73.94 74.69 75.29 74.88 75.58 76.19 77.46 77.17 77.54
54.48 51.56 48.62 50.35 51.35 54.19 53.40 54.28 54.19 53.60 53.68 50.99 49.25 51.69 59.82 61.62 61.84 65.00 65.84 66.20 66.24 66.74 67.63 68.43 68.81 69.38 72.83 74.48 75.45 75.68 75.42 73.58 73.55 74.11 73.61 73.46 73.87 74.25 74.41 75.62 76.33 77.46 78.04 74.32
58.41 52.45 51.08 48.82 51.43 53.54 52.64 53.22 53.06 54.16 51.13 51.78 51.88 54.22 57.60 60.62 62.15 64.22 65.93 66.46 66.34 66.63 67.25 68.27 69.24 72.70 74.79 75.85 76.28 76.05 75.87 74.92 73.81 71.52 73.12 74.17 74.96 75.31 75.90 76.84 77.91 77.08 74.23 71.01
55.19 51.83 52.97 53.68 51.83 52.26 53.51 53.76 52.99 53.38 54.48 52.06 54.38 54.67 57.61 61.98 63.89 65.45 65.84 65.80 65.44 65.71 66.45 68.34 71.18 74.03 75.07 75.48 75.94 76.27 75.93 76.39 75.37 75.07 74.57 73.73 75.87 76.51 77.25 77.61 76.43 75.20 73.63 72.56
54.72 53.22 51.30 51.35 52.65 53.33 52.76 54.30 54.46 53.95 54.15 54.64 55.29 55.03 61.09 63.34 65.72 65.64 64.85 64.82 65.05 65.69 68.04 71.59 72.89 73.63 73.54 74.42 74.93 76.02 76.15 76.33 75.99 75.55 75.10 76.73 77.63 77.60 75.92 74.91 73.97 73.32 71.96 73.34
54.60 53.89 51.75 49.61 53.07 53.37 50.94 54.86 55.22 56.37 57.38 56.97 54.59 58.54 61.36 62.89 64.68 65.54 64.82 65.06 65.66 68.89 71.52 72.40 72.45 72.85 73.49 74.14 75.03 74.86 74.98 75.55 75.85 76.11 75.93 76.43 76.63 75.07 74.82 74.67 74.09 72.74 72.91 73.79
54.74 53.78 52.66 51.30 52.33 45.80 53.96 59.10 58.20 56.62 57.86 59.87 59.74 61.01 62.66 64.92 66.86 67.57 67.60 66.66 68.80 71.52 71.71 72.20 72.05 72.21 73.61 74.50 74.33 74.37 74.33 74.41 74.28 74.68 74.80 74.83 74.85 74.68 74.85 74.73 74.42 74.40 74.15 73.70
55.74 54.51 52.21 50.44 50.02 52.03 54.56 56.53 57.96 57.97 57.49 61.92 61.07 62.72 64.64 67.06 67.43 66.87 68.84 69.92 71.96 71.81 72.50 71.48 70.93 72.14 73.63 73.79 74.20 74.17 74.06 74.32 74.22 74.04 74.33 74.37 74.46 73.82 73.77 73.31 73.28 73.53 72.81 72.02
53.91 54.18 53.82 50.89 48.91 46.90 55.19 58.95 62.71 62.23 55.41 62.45 63.41 63.72 65.10 66.85 62.45 65.69 70.02 72.16 71.80 72.11 70.90 70.22 71.00 72.37 73.34 73.47 73.94 73.18 72.72 72.61 73.22 73.70 73.68 74.04 74.33 74.19 73.80 73.95 73.38 73.53 72.68 71.77
52.51 52.56 51.44 51.87 50.59 53.10 58.53 60.82 62.70 54.38 56.28 63.51 65.11 65.50 66.62 66.24 68.27 70.41 71.75 71.51 71.46 70.21 70.24 71.40 71.28 71.29 72.50 73.52 73.38 71.97 71.67 71.76 72.73 73.43 73.78 74.27 74.69 74.40 74.19 73.90 73.06 72.98 71.99 71.63
53.36 51.56 51.09 51.87 50.55 48.68 59.94 60.97 57.53 61.99 60.76 64.08 66.04 66.94 68.11 68.22 69.29 70.63 71.15 71.10 70.46 69.76 70.41 70.86 70.34 70.79 71.82 72.39 71.59 71.01 71.39 73.46 74.49 74.26 73.96 74.15 73.94 72.78 72.91 73.68 73.31 72.22 72.17 71.47
50.10 54.64 54.19 54.47 54.84 61.41 62.77 63.39 63.78 62.42 64.40 63.53 65.94 67.30 68.44 67.75 69.21 70.62 70.49 69.96 69.17 69.76 70.02 70.31 70.53 70.67 71.74 71.57 71.87 71.82 73.21 74.39 73.94 73.96 73.57 73.41 73.22 72.91 72.94 71.98 72.01 71.21 71.10 70.08
56.41 56.57 55.05 54.58 59.45 58.83 59.84 63.23 64.38 64.74 65.34 65.22 66.14 66.75 68.12 68.12 69.39 70.53 70.29 69.02 68.90 69.79 69.76 70.15 70.62 70.89 71.16 71.80 72.40 73.19 74.03 74.05 73.98 73.21 72.64 71.86 72.15 72.12 71.91 71.29 71.08 70.45 70.20 69.25
59.20 57.56 58.18 57.27 59.93 61.18 62.44 62.95 64.59 64.75 65.30 64.91 66.47 67.49 68.34 68.90 69.08 70.37 69.48 69.18 69.49 69.40 70.01 70.02 70.81 71.38 71.57 71.91 72.01 73.71 74.59 74.14 73.28 72.98 72.48 72.29 72.18 72.70 72.33 72.69 71.82 72.15 71.79 67.62
59.25 60.47 57.26 56.48 64.37 64.54 65.32 64.08 64.86 64.76 65.03 66.02 66.42 66.74 68.26 69.70 69.11 70.38 69.63 69.85 69.78 69.02 69.68 70.19 71.33 72.15 71.99 71.93 71.92 73.67 74.71 74.26 73.08 71.93 71.76 71.87 72.91 73.45 73.65 73.12 71.87 54.51 54.83 51.13
MSLP
1009.97 1009.54 1008.99 1008.71 1008.96 1009.25 1009.51 1009.65 1009.70 1010.06 1010.25 1010.42 1010.49 1010.67 1011.23 1011.90 1012.32 1012.56 1012.69 1012.62 1012.60 1012.71 1012.76 1013.01 1013.32 1013.71 1013.95 1014.13 1014.51 1014.87 1015.25 1015.54 1016.07 1016.40 1016.64 1016.76 1016.69 1016.70 1016.79 1016.77 1016.85 1016.95 1017.04 1017.14
1009.70 1008.63 1008.26 1008.39 1008.62 1008.93 1009.13 1009.36 1009.50 1010.00 1010.26 1010.44 1010.41 1010.39 1010.67 1011.12 1011.35 1011.64 1011.86 1011.94 1011.87 1011.96 1012.29 1012.60 1013.07 1013.28 1013.36 1013.63 1014.01 1014.41 1014.83 1015.14 1015.58 1016.00 1016.36 1016.43 1016.54 1016.53 1016.50 1016.46 1016.48 1016.70 1016.85 1016.88
1008.89 1007.98 1008.02 1008.00 1008.04 1008.40 1008.51 1008.78 1009.10 1009.32 1009.98 1010.24 1010.11 1009.95 1010.23 1010.52 1010.96 1011.23 1011.28 1011.15 1011.31 1011.44 1011.63 1011.91 1012.32 1012.40 1012.79 1013.05 1013.38 1013.76 1014.14 1014.67 1015.20 1015.65 1016.13 1016.35 1016.48 1016.46 1016.31 1016.22 1016.23 1016.18 1016.46 1016.47
1008.40 1007.66 1007.48 1007.45 1007.52 1007.78 1007.82 1008.20 1008.60 1009.10 1009.45 1009.57 1009.81 1009.30 1009.46 1009.62 1009.92 1010.30 1010.35 1010.42 1010.42 1010.78 1011.15 1011.41 1011.38 1011.55 1011.76 1012.05 1012.64 1013.10 1013.56 1014.04 1014.71 1015.28 1015.63 1015.74 1015.87 1015.98 1016.02 1016.12 1016.24 1016.21 1016.28 1016.30
1007.45 1007.06 1007.05 1006.91 1007.27 1007.71 1008.00 1008.00 1008.46 1008.90 1009.16 1009.47 1009.68 1009.27 1008.56 1009.04 1009.00 1008.87 1009.04 1009.07 1009.47 1009.74 1010.26 1010.54 1010.72 1010.79 1011.11 1011.71 1012.03 1012.50 1013.18 1013.71 1014.29 1014.80 1015.12 1015.41 1015.65 1015.76 1015.92 1016.11 1016.11 1016.14 1016.14 1016.10
1007.21 1007.12 1007.04 1006.92 1007.49 1007.71 1007.99 1008.37 1008.54 1008.75 1008.92 1008.77 1009.23 1008.96 1007.41 1007.63 1007.02 1007.51 1007.92 1008.16 1008.44 1008.82 1009.28 1009.77 1009.94 1010.26 1010.74 1011.30 1011.65 1012.07 1012.70 1013.07 1013.79 1014.41 1014.78 1015.04 1015.21 1015.43 1015.63 1015.72 1015.69 1015.67 1015.80 1015.93
1006.92 1006.56 1006.76 1007.03 1007.43 1007.97 1007.98 1007.98 1007.68 1007.79 1008.09 1008.43 1009.21 1008.61 1006.27 1006.12 1006.18 1006.25 1006.54 1006.94 1007.33 1008.08 1008.65 1008.99 1009.38 1009.78 1010.12 1010.59 1011.13 1011.65 1012.22 1012.61 1013.14 1013.77 1014.22 1014.52 1014.81 1015.08 1015.15 1015.21 1015.12 1015.28 1015.35 1015.56
1006.62 1006.31 1006.41 1006.77 1006.75 1006.86 1007.48 1007.64 1007.47 1007.49 1007.96 1008.22 1008.77 1007.27 1005.48 1005.35 1005.71 1006.18 1006.25 1006.44 1006.66 1007.16 1007.84 1008.32 1008.67 1009.03 1009.71 1010.15 1010.78 1011.23 1011.61 1012.10 1012.47 1012.97 1013.47 1013.95 1014.42 1014.48 1014.62 1014.80 1014.82 1014.86 1015.00 1015.06
1006.38 1006.26 1006.16 1006.41 1006.41 1006.64 1007.10 1007.43 1007.43 1007.25 1008.23 1007.93 1006.88 1006.15 1005.66 1005.49 1005.48 1005.94 1006.10 1006.15 1006.37 1006.75 1007.19 1007.70 1008.33 1008.91 1009.53 1009.84 1010.32 1010.74 1011.05 1011.43 1011.69 1011.98 1012.80 1013.33 1013.66 1014.11 1014.07 1014.41 1014.58 1014.55 1014.70 1014.89
1005.91 1006.11 1005.86 1006.01 1006.09 1006.58 1006.35 1006.80 1007.03 1007.11 1006.95 1006.53 1005.96 1005.55 1004.95 1004.99 1005.06 1005.69 1006.05 1006.11 1006.46 1006.97 1007.46 1007.86 1008.18 1008.69 1009.14 1009.49 1009.95 1010.43 1010.61 1010.62 1010.79 1011.36 1011.97 1012.33 1012.70 1013.19 1013.61 1013.94 1014.01 1014.12 1014.37 1014.84
1005.78 1005.82 1005.71 1005.85 1005.33 1005.29 1006.24 1006.13 1006.50 1006.65 1006.66 1006.34 1005.70 1004.73 1005.04 1004.86 1005.20 1005.37 1005.71 1006.40 1006.81 1007.12 1007.59 1008.12 1008.61 1009.03 1009.52 1009.51 1009.76 1009.89 1010.13 1010.23 1010.43 1010.79 1011.24 1011.68 1011.93 1012.40 1012.93 1013.20 1013.56 1013.93 1014.24 1014.79
1005.34 1004.97 1004.75 1004.77 1004.77 1005.41 1005.33 1005.15 1005.29 1005.58 1006.08 1006.48 1006.07 1004.95 1005.00 1005.31 1005.55 1005.64 1005.91 1006.57 1007.30 1007.54 1007.92 1008.51 1009.23 1009.15 1009.45 1009.74 1009.94 1009.95 1009.97 1010.03 1010.08 1010.47 1010.85 1010.99 1011.25 1011.77 1012.12 1012.74 1013.26 1013.90 1014.32 1014.69
1005.07 1004.82 1004.34 1004.11 1004.78 1005.06 1004.69 1004.66 1004.93 1005.24 1005.53 1005.55 1005.30 1004.59 1004.97 1005.27 1005.51 1005.79 1006.02 1006.74 1007.72 1008.15 1008.54 1008.68 1008.95 1009.26 1009.59 1009.73 1009.71 1009.88 1010.02 1009.99 1010.03 1010.32 1010.55 1010.77 1011.03 1011.60 1012.10 1012.52 1012.92 1013.41 1014.14 1015.41
1005.02 1004.18 1003.55 1003.22 1003.29 1003.77 1004.05 1004.13 1004.57 1004.41 1004.58 1004.40 1004.12 1004.03 1004.61 1004.82 1005.21 1005.74 1006.28 1006.98 1007.64 1008.22 1008.88 1009.12 1009.28 1009.58 1009.82 1009.75 1009.81 1010.03 1010.05 1010.09 1009.85 1009.88 1010.02 1010.76 1011.32 1011.42 1011.44 1012.05 1012.62 1013.59 1014.04 1014.02
1004.50 1003.82 1003.65 1003.25 1003.47 1003.62 1003.52 1003.47 1003.86 1003.82 1003.78 1003.91 1003.34 1003.65 1003.90 1004.31 1004.86 1005.43 1006.09 1007.01 1007.65 1008.15 1008.77 1009.04 1009.28 1009.63 1009.78 1009.85 1009.93 1010.04 1010.11 1010.14 1009.88 1009.98 1010.31 1010.52 1011.29 1011.45 1011.67 1012.34 1013.03 1013.38 1013.72 1013.90
1004.60 1004.23 1003.98 1003.39 1003.57 1003.43 1003.09 1003.12 1003.24 1003.34 1003.56 1003.51 1003.31 1002.86 1003.51 1004.28 1005.10 1005.44 1006.03 1006.83 1007.36 1007.80 1008.26 1008.81 1009.25 1009.39 1009.72 1010.03 1010.31 1010.25 1010.26 1010.24 1010.46 1010.36 1010.40 1010.84 1011.17 1011.54 1012.05 1012.72 1013.41 1013.19 1013.39 1013.89
1004.45 1004.26 1004.17 1003.31 1003.47 1003.28 1002.84 1002.06 1002.19 1002.06 1002.39 1002.35 1002.34 1002.29 1003.38 1004.09 1004.41 1004.75 1005.56 1006.44 1007.05 1007.57 1008.28 1008.66 1009.18 1009.65 1009.99 1010.07 1010.34 1010.54 1010.76 1010.75 1010.92 1011.10 1011.26 1011.47 1011.75 1011.98 1012.49 1012.96 1013.22 1013.46 1013.83 1014.07
1004.28 1004.38 1004.49 1003.69 1003.48 1002.70 1001.41 1001.90 1001.68 1001.72 1001.48 1002.06 1002.19 1002.91 1003.19 1003.27 1003.93 1004.55 1005.15 1005.81 1006.67 1007.26 1008.01 1008.69 1009.35 1009.97 1010.32 1010.62 1010.73 1010.68 1011.04 1011.17 1011.48 1011.76 1011.85 1011.94 1012.24 1012.41 1012.80 1013.12 1013.50 1013.88 1014.07 1014.27
1004.61 1004.29 1004.18 1003.84 1002.94 1002.24 1001.48 1001.66 1001.63 1001.39 1000.45 1000.99 1001.68 1002.66 1003.27 1003.79 1004.44 1005.18 1005.51 1005.92 1006.41 1007.03 1007.69 1008.44 1009.13 1009.73 1010.32 1010.64 1010.90 1010.94 1011.27 1011.62 1011.81 1012.07 1012.17 1012.38 1012.62 1012.72 1013.11 1013.48 1013.76 1013.99 1014.16 1014.47
1004.70 1004.66 1003.53 1003.87 1002.22 1001.24 1000.62 1000.87 1001.13 1001.14 1000.26 1000.21 1001.21 1002.21 1002.77 1003.37 1003.49 1004.21 1005.33 1005.99 1006.72 1007.36 1007.98 1008.59 1009.48 1009.89 1010.29 1010.86 1010.99 1011.18 1011.48 1011.69 1012.15 1012.46 1012.49 1012.74 1012.90 1013.00 1013.36 1013.66 1013.91 1014.22 1014.39 1014.56
1003.99 1004.03 1003.20 1002.67 1001.80 1000.75 1000.22 1000.93 1001.33 1000.90 1000.27 1000.38 1001.11 1001.90 1002.46 1002.12 1002.32 1003.53 1005.09 1005.95 1006.70 1007.24 1008.13 1008.61 1009.46 1009.76 1010.41 1010.99 1011.03 1011.38 1011.72 1012.12 1012.53 1012.63 1012.95 1013.07 1013.21 1013.48 1013.68 1013.84 1014.10 1014.31 1014.50 1014.75
1002.50 1002.70 1002.33 1002.13 1001.43 1000.46 1000.40 1001.14 1000.71 999.65 1000.12 1000.68 1001.27 1001.79 1002.28 1002.91 1003.29 1003.81 1004.97 1005.99 1006.82 1007.55 1008.46 1008.95 1009.47 1010.11 1010.87 1011.19 1011.19 1011.55 1011.94 1012.46 1012.71 1013.03 1013.10 1013.32 1013.59 1013.61 1013.89 1014.02 1014.27 1014.49 1014.66 1014.84
1001.92 1001.12 1000.85 1001.05 999.74 999.57 999.92 999.45 999.65 999.82 1000.03 1000.89 1001.29 1001.80 1002.46 1002.89 1003.55 1003.94 1004.70 1005.75 1006.80 1007.50 1008.27 1008.86 1009.35 1010.12 1010.92 1011.29 1011.41 1011.70 1012.19 1012.50 1012.92 1012.97 1013.33 1013.68 1013.81 1013.84 1013.99 1014.07 1014.22 1014.40 1014.69 1014.64
1001.14 1001.08 1000.63 1000.68 999.08 999.03 999.31 999.93 999.87 1000.02 1000.05 1000.50 1000.94 1001.79 1002.42 1002.78 1003.53 1004.03 1004.78 1005.65 1006.56 1007.41 1008.14 1008.82 1009.43 1010.04 1010.86 1011.33 1011.50 1011.75 1012.18 1012.61 1012.81 1012.98 1013.50 1013.79 1013.83 1013.90 1014.03 1013.95 1014.04 1014.15 1014.28 1014.47
999.99 1000.37 999.76 999.53 999.16 999.21 999.16 999.41 999.64 1000.08 1000.35 1000.72 1001.24 1001.65 1002.04 1002.68 1003.34 1003.81 1004.71 1005.52 1006.50 1007.19 1008.13 1008.79 1009.35 1009.97 1010.63 1011.12 1011.43 1011.87 1012.27 1012.66 1012.91 1013.16 1013.54 1013.72 1013.73 1013.75 1013.80 1013.85 1014.05 1014.09 1014.46 1014.64
999.43 998.79 998.71 997.94 997.97 998.09 997.79 998.32 999.25 999.77 1000.20 1000.78 1001.18 1001.76 1002.28 1002.67 1003.07 1003.76 1004.43 1005.16 1006.25 1007.01 1008.01 1008.92 1009.55 1010.02 1010.53 1011.02 1011.41 1011.91 1012.32 1012.70 1012.85 1013.06 1013.31 1013.38 1013.40 1013.44 1013.55 1013.68 1013.92 1014.65 1014.91 1015.09
Wind_Speed
1 3 4 8 10 1 2 2 0 1 2 3 4 6 12 15 13 14 15 15 14 16 16 14 14 13 12 12 11 11 9 10 7 5 4 4 5 4 4 5 7 6 5 5
4 6 5 5 4 8 7 3 1 1 0 3 3 5 9 16 16 16 16 16 17 17 15 14 13 13 14 14 13 12 12 10 9 7 4 3 3 3 4 4 4 5 5 5
7 6 1 5 4 6 9 11 5 1 5 2 3 4 6 10 10 13 14 15 15 16 16 15 15 16 14 15 15 13 12 11 10 10 6 4 2 3 4 2 1 4 6 5
7 4 3 4 8 5 5 4 7 6 6 0 4 1 6 11 15 14 16 15 15 17 16 14 15 15 15 15 11 12 12 11 10 11 9 8 6 5 2 2 1 2 5 6
3 6 7 13 5 4 3 1 9 5 3 2 2 3 3 6 13 18 19 19 18 17 16 16 16 16 14 10 10 9 10 10 9 11 10 8 8 6 4 2 3 3 3 5
13 4 5 2 6 3 11 7 5 3 1 4 3 4 3 7 16 17 18 19 19 18 17 16 17 14 11 9 9 9 10 10 10 11 11 11 10 8 6 5 4 3 3 4
7 7 1 2 7 3 1 2 2 2 1 2 2 5 6 8 8 13 20 20 20 19 16 15 15 13 10 10 10 9 9 10 10 12 11 12 11 10 10 8 6 4 4 4
4 4 5 6 5 4 4 1 3 5 3 4 3 6 2 6 3 4 9 13 16 16 16 17 17 15 11 10 9 9 9 10 11 12 12 10 10 8 8 8 6 5 4 5
4 5 1 5 5 4 5 6 2 1 2 3 2 4 6 6 6 5 6 11 14 13 15 17 14 11 9 9 11 11 11 11 12 13 10 11 10 11 9 10 8 6 6 4
6 7 1 2 4 5 4 9 3 1 3 5 2 5 0 5 6 7 5 3 7 7 10 10 10 9 9 9 8 9 11 14 12 12 11 10 11 11 11 9 10 9 7 5
8 6 3 4 6 4 5 4 2 1 1 2 5 3 3 5 2 3 5 7 4 9 10 9 8 7 5 6 7 9 11 13 11 11 11 11 11 11 10 9 9 9 7 4
10 7 11 14 2 2 3 3 6 4 3 0 3 4 1 4 2 4 5 9 9 8 10 11 7 9 7 5 4 6 6 10 9 9 10 12 12 10 9 8 7 4 4 2
10 8 6 6 5 3 6 4 3 5 3 5 5 3 2 4 5 4 9 10 11 12 12 11 9 7 5 3 3 4 4 6 8 8 8 7 7 6 4 5 4 4 7 13
6 5 13 13 8 2 4 5 7 10 5 4 10 6 5 9 9 7 8 9 11 9 9 7 6 5 4 4 5 5 6 4 5 5 7 2 3 4 6 5 6 11 13 15
9 9 10 12 5 4 3 6 11 12 9 8 6 5 6 11 11 11 11 11 12 12 8 8 8 6 5 5 5 5 5 6 4 4 3 2 4 4 6 8 10 12 12 7
6 3 5 8 7 7 7 5 9 12 9 13 15 20 10 8 9 12 13 13 14 13 11 10 8 8 7 6 4 5 6 8 6 5 5 5 6 7 10 10 10 8 4 2
5 4 4 5 4 5 6 14 15 10 8 8 11 7 11 11 15 17 16 15 15 15 13 12 9 7 5 6 6 6 7 7 9 8 8 9 9 11 11 11 11 10 6 5
6 5 2 1 5 7 3 1 7 14 15 12 13 3 13 15 14 14 15 17 17 17 15 13 11 9 8 8 8 9 7 8 9 8 10 11 12 12 11 11 10 9 8 7
6 4 4 5 7 3 5 6 8 10 13 14 15 6 11 13 14 8 12 15 16 15 14 12 10 11 10 9 9 10 9 8 9 9 10 10 10 11 11 11 10 8 8 8
5 3 4 3 9 12 9 5 7 6 12 12 14 15 19 18 13 10 16 15 15 15 14 14 12 11 11 10 10 10 8 9 10 9 9 8 9 10 10 9 8 7 8 7
4 3 12 7 6 5 8 8 8 7 3 12 14 19 20 18 3 15 18 17 16 15 15 14 11 9 9 8 9 9 9 9 8 8 8 8 8 8 7 7 7 7 7 6
9 8 6 4 7 10 9 10 9 3 4 11 13 17 16 8 12 22 20 18 17 16 15 13 11 10 9 8 10 10 10 8 7 7 8 7 7 5 5 7 7 6 6 5
6 8 5 10 8 3 14 3 6 4 5 6 13 14 14 14 18 23 21 20 18 18 15 13 12 12 9 8 9 11 10 9 8 9 8 6 6 5 5 6 6 5 5 3
8 7 7 3 10 9 7 11 6 5 4 7 10 14 16 15 18 21 21 19 17 15 15 12 12 12 10 8 8 8 9 8 7 9 7 5 5 5 4 4 3 3 3 3
3 10 8 6 8 3 8 15 11 7 6 8 10 13 18 17 20 21 18 16 14 13 13 12 12 11 11 9 9 8 8 7 7 7 6 6 5 4 3 2 2 1 1 2
7 7 8 8 8 5 5 14 13 11 10 11 13 13 13 16 19 20 18 15 13 13 13 11 10 11 11 10 9 9 8 8 7 7 5 4 3 3 2 2 3 2 4 3
Wind_Direction
349 275 243 245 217 93 265 209 79 294 141 228 214 191 181 182 189 194 205 214 223 224 222 227 237 237 240 243 245 243 244 241 208 191 213 234 248 250 247 236 233 235 232 216
214 272 271 288 241 233 231 232 169 132 282 211 202 225 191 188 199 203 202 208 221 229 226 230 237 245 245 249 249 244 238 230 210 201 205 205 218 229 254 236 250 222 231 228
260 294 336 271 289 233 237 234 191 339 149 135 234 205 185 203 208 209 223 218 221 227 233 229 226 230 235 238 238 238 233 220 209 204 189 170 192 248 238 223 257 215 214 221
252 298 279 309 312 256 276 196 199 160 192 68 320 280 216 204 209 210 218 219 225 224 228 240 238 230 229 239 240 235 225 213 203 196 202 200 216 244 265 323 312 264 223 230
300 292 316 316 357 202 2 228 147 120 105 191 182 241 129 188 220 219 215 217 220 227 222 228 234 240 239 238 231 231 225 218 207 196 204 202 221 235 245 246 274 267 234 228
273 298 282 6 46 145 124 108 102 105 238 241 102 273 204 183 219 216 221 222 221 218 222 224 235 241 239 228 226 221 213 217 202 199 200 205 210 221 228 229 248 246 240 217
284 280 297 145 103 172 271 195 274 211 204 5 143 245 269 221 204 216 209 219 225 217 215 213 218 221 223 219 222 215 206 217 208 205 208 211 216 216 224 232 238 243 249 240
314 263 187 169 238 213 182 283 321 326 329 310 162 232 153 205 143 214 232 227 227 224 217 222 220 222 213 219 217 216 213 226 208 206 208 210 215 218 224 230 240 242 238 243
207 255 265 215 165 195 150 213 52 264 121 258 218 255 252 235 248 212 239 218 210 212 210 214 216 227 219 205 214 215 212 218 219 212 207 209 208 221 227 225 225 234 233 237
209 262 182 130 149 95 249 139 174 208 299 322 238 268 288 167 192 163 142 165 182 188 192 194 207 213 206 210 212 223 231 233 225 217 213 211 217 216 224 228 230 228 236 226
169 238 182 226 204 224 155 196 127 154 290 288 306 344 201 200 159 129 125 129 143 151 156 145 152 141 154 170 196 222 231 239 233 222 217 216 217 217 217 222 236 238 242 226
202 225 251 257 229 302 269 265 220 249 185 173 312 289 350 247 147 141 132 121 119 124 127 133 151 133 149 177 214 234 249 251 243 229 217 221 223 214 218 221 239 244 235 173
171 214 240 233 176 157 229 187 183 120 134 218 274 282 59 172 177 148 137 144 131 129 134 136 131 141 160 125 45 356 292 263 245 233 235 233 228 228 228 228 213 177 95 80
200 180 209 228 231 111 197 207 201 224 230 212 241 284 208 189 167 157 134 139 153 142 145 149 135 134 122 71 51 19 355 313 243 196 240 239 264 204 194 178 142 114 133 147
195 244 208 227 232 231 270 214 188 213 230 231 289 243 219 194 171 148 131 135 147 147 145 150 153 144 124 80 43 40 32 358 337 195 200 151 194 155 146 119 126 144 154 175
142 286 214 234 189 214 237 218 222 224 220 246 262 273 212 165 152 147 143 148 150 149 152 147 144 127 110 95 79 50 48 43 43 71 89 101 115 126 113 128 140 125 121 145
182 196 219 234 170 171 237 236 217 228 216 246 243 268 159 168 177 161 153 155 152 149 152 146 133 114 93 84 84 82 72 72 73 78 93 111 119 116 116 120 118 118 139 120
163 153 217 249 159 218 249 293 241 234 257 237 256 219 196 175 168 158 156 155 156 152 147 142 140 132 130 118 106 99 93 90 97 100 101 105 114 116 118 118 119 120 112 102
245 160 183 220 215 301 226 208 206 201 265 223 226 195 172 151 134 129 161 160 154 150 141 140 135 132 131 125 117 108 105 105 100 98 99 104 112 114 117 115 110 108 108 107
160 289 209 181 232 240 240 179 168 168 274 180 180 174 165 162 170 162 164 155 149 144 143 136 139 139 129 133 130 118 107 99 97 98 94 100 109 109 109 113 113 116 115 105
166 184 223 209 248 253 254 152 171 215 302 171 179 178 176 184 183 140 152 151 151 143 140 135 143 131 130 144 135 119 123 112 106 101 107 106 99 101 108 102 97 115 114 109
206 191 207 181 216 243 149 141 207 198 141 174 185 185 188 131 139 144 151 151 149 147 147 151 149 144 150 154 135 132 126 128 121 125 115 107 107 107 106 110 110 114 125 127
225 210 213 225 208 141 194 266 181 173 140 176 186 180 173 145 154 154 156 155 158 158 156 162 152 147 152 153 149 145 135 138 143 128 125 125 117 105 113 116 124 133 151 157
212 181 223 182 220 215 207 227 218 200 141 164 165 164 171 158 163 163 159 158 161 162 158 159 156 153 157 161 149 134 139 147 146 131 136 141 133 124 121 127 132 130 149 152
202 158 190 230 268 295 240 224 187 160 127 134 159 169 176 165 171 167 163 161 158 160 160 164 165 163 161 155 148 148 146 151 153 141 154 161 153 158 146 98 63 90 96 0
193 176 191 220 223 233 230 191 176 162 162 160 163 163 178 178 170 173 163 166 157 161 159 166 170 164 158 158 152 157 156 167 160 159 170 166 164 170 193 222 174 88 26 45